Rbgn^[z[y[W
メイン
   新天体発見情報
     Comet C/2024 E2 (Bok)
投稿するにはまず登録を

スレッド表示 | 新しいものから 前のトピック | 次のトピック | 下へ
投稿者 スレッド
佐藤裕久
投稿日時: 2024-3-30 1:12
モデレータ
登録日: 2005-6-12
居住地: 日本
投稿: 2585
オンライン
Comet C/2024 E2 (Bok)

M. J. Bruckerは、3月10日と11日、共同プログラム(CBET 5103参照)の一環としてKitt Peakにある
2.25-m "Bok" 反射望遠鏡で得たCCD画像から、ほぼ放物線軌道の小惑星状天体を発見した。
小惑星センターのPCCP webpageに公表後、他の観測者によって彗星状と観測された。
J. Maikner (New Ringgold, ペンシルベニア州)によると、3月14.09日UT、0.30-m f/3.8 Riccardi-
Honders 望遠鏡で得た50枚の120-秒CCD画像では、集光した2"のコマとp.a. 130°に9".5のまっすぐ
な尾が見えた。

彗星機能の報告は次のとおり、

OC   Date        Reporter           Coma    Tail    PA          Exposures
088  2024-03-14  L. Elenin          3"        2".5  320
Z31  2024-03-25  P. Breitenstein    4"        5"    250-290       9x120s

発見位置は次のとおり、

     2024 UT             R.A. (2000) Decl.       Mag.   Observer
     Mar. 10.25252    8 29 30.82   +22 09 00.7   22.7   Brucker
          10.25814    8 29 30.59   +22 09 01.6   22.3     "
          10.26376    8 29 30.34   +22 09 02.9   22.3     "
          10.26937    8 29 30.14   +22 09 04.0   23.5     "
          11.19206    8 28 53.95   +22 12 26.2   21.8     "
          11.20024    8 28 53.62   +22 12 27.6   22.0     "
          11.20465    8 28 53.44   +22 12 28.8   22.0     "
          11.20836    8 28 53.30   +22 12 29.5   21.8     "

MPCの双曲線軌道要素、位置推算表は次のとおり、

Orbital elements:
    C/2024 E2 (Bok)                                                             
Epoch 2024 Mar. 31.0 TT = JDT 2460400.5                                         
T 2023 May 29.59532 TT                                  Bell                    
q   7.6218237            (2000.0)            P               Q                  
z  -0.0153847      Peri.  347.84729     -0.83555428     +0.47358475             
 +/-0.0000003      Node   135.81815     +0.53159108     +0.56883495             
e   1.1172594      Incl.  156.44582     +0.13878028     +0.67241674             
From 44 observations 2024 Mar. 10-25, mean residual 0".2.                       
                                                                                
Ephemeris:
Date    TT    R. A. (2000) Decl.     Delta      r    Elong.  Phase   m1
2024 02 26    09 52 54.0 +05 41 57   6.6528  7.6281   169.5     1.4  21.4
...
2024 03 12    09 41 27.7 +07 16 10   6.7262  7.6246   152.9     3.4  21.5
...
2024 03 20    09 35 51.3 +08 04 21   6.7983  7.6232   143.6     4.4  21.5
...
2024 03 26    09 31 57.9 +08 38 54   6.8656  7.6224   136.7     5.1  21.5
2024 03 27    09 31 20.7 +08 44 31   6.8778  7.6223   135.6     5.3  21.5
2024 03 28    09 30 44.0 +08 50 04   6.8903  7.6222   134.4     5.4  21.5
...
2024 04 03    09 27 15.6 +09 22 24   6.9707  7.6217   127.6     6.0  21.5
...
2024 04 11    09 23 09.6 +10 02 32   7.0906  7.6213   118.6     6.6  21.6
...
2024 04 26    09 17 12.9 +11 07 55   7.3436  7.6216   102.3     7.4  21.7


中野主一氏(中央局)の放物線軌道要素次のとおり、
from 44 observations spanning Mar. 10-25 (mean residual 0".3). 
諸惑星への接近はない。

     T = 2023 July 24.33710 TT        Peri. = 351.93192
                                      Node  = 135.74926 2000.0
     q = 7.671572 AU                  Incl. = 156.12627

(MPEC 2024-F91、CBET 5378)

スレッド表示 | 新しいものから 前のトピック | 次のトピック | トップ

投稿するにはまず登録を
 
© 1999 Tsutomu Seki.